CW7500 Weather Reports


Display with metric or nautical units.
time (UTC)temp
F
wind
direction
speed
MPH
gust
MPH
rain 1hr
in
rain 24hr
in
rain mn
in
humidity
%
barometer
mb
20260902073509 60 341 0.0 2.0 0.00 0.14 0.00 100 1019.4
20260902073008 60 19 1.0 2.0 0.00 0.14 0.00 100 1019.5
20260902072509 60 92 0.0 1.0 0.00 0.14 0.00 100 1019.4
20260902072009 60 54 0.0 0.0 0.00 0.14 0.00 100 1019.3
20260902071508 60 236 0.0 0.0 0.00 0.14 0.00 100 1019.3
20260902071008 60 61 0.0 1.0 0.00 0.14 0.00 100 1019.1
20260902070508 60 342 0.0 1.0 0.00 0.14 0.00 100 1019.1
20260902070009 60 324 1.0 1.0 0.00 0.14 0.00 100 1019.1
20260902065508 60 357 0.0 1.0 0.00 0.14 0.00 100 1019.2
20260902065008 60 283 0.0 1.0 0.00 0.14 0.00 100 1019.2
20260902064508 60 293 0.0 2.0 0.00 0.14 0.00 100 1019.3
20260902063009 60 95 0.0 2.0 0.00 0.14 0.00 100 1019.0
20260902062508 60 278 2.0 3.0 0.00 0.14 0.00 100 1019.0
20260902062009 60 17 1.0 2.0 0.00 0.14 0.00 100 1019.0
20260902061508 60 18 1.0 2.0 0.00 0.14 0.00 100 1019.2
20260902060509 60 78 1.0 3.0 0.00 0.14 0.00 100 1019.1
20260902060008 60 22 0.0 1.0 0.00 0.14 0.00 100 1019.1
20260902055509 60 324 1.0 2.0 0.00 0.14 0.00 100 1019.0
20260902055008 60 24 1.0 2.0 0.00 0.14 0.00 100 1019.0
20260902054508 60 49 1.0 3.0 0.00 0.14 0.00 100 1019.0
20260902054008 60 14 0.0 2.0 0.00 0.14 0.00 100 1019.0
20260902053508 60 38 0.0 1.0 0.00 0.14 0.00 100 1019.0
20260902053009 60 19 0.0 1.0 0.00 0.14 0.00 100 1019.0
20260902052508 60 290 0.0 1.0 0.00 0.14 0.00 100 1019.0
20260902052008 60 67 0.0 1.0 0.00 0.14 0.00 100 1019.0
20260902051508 60 350 1.0 1.0 0.00 0.14 0.00 100 1018.9
20260902051008 59 70 0.0 1.0 0.00 0.14 0.00 100 1019.0
20260902050509 59 31 0.0 1.0 0.00 0.14 0.00 100 1018.8
20260902050009 59 43 0.0 2.0 0.00 0.14 0.00 100 1018.9
20260902045508 59 348 0.0 0.0 0.00 0.14 0.00 100 1018.7
20260902045008 59 21 0.0 0.0 0.00 0.14 0.00 100 1018.6
20260902044508 59 76 0.0 1.0 0.00 0.14 0.00 100 1018.6
20260902044008 59 24 0.0 1.0 0.00 0.14 0.00 100 1018.6
20260902043508 59 292 0.0 0.0 0.00 0.14 0.00 100 1018.7
20260902043008 59 246 0.0 0.0 0.00 0.14 0.00 100 1018.7
20260902042508 59 247 0.0 1.0 0.00 0.14 0.00 100 1018.5
20260902042008 59 247 0.0 0.0 0.00 0.14 0.00 100 1018.5
20260902041008 59 231 1.0 1.0 0.00 0.14 0.00 100 1018.4
20260902040508 59 251 0.0 0.0 0.00 0.14 0.00 100 1018.2
20260902040008 59 234 0.0 1.0 0.00 0.14 0.00 100 1018.1
20260902035508 60 253 0.0 1.0 0.00 0.14 0.14 100 1018.2
20260902035008 60 258 1.0 1.0 0.00 0.14 0.14 100 1018.1
20260902034508 60 257 1.0 3.0 0.00 0.14 0.14 100 1018.0
20260902034008 60 52 1.0 3.0 0.00 0.14 0.14 100 1017.8
20260902033508 60 12 0.0 3.0 0.00 0.14 0.14 100 1017.7
20260902033008 60 60 1.0 2.0 0.00 0.14 0.14 100 1017.7
20260902032508 60 51 1.0 2.0 0.00 0.14 0.14 100 1017.7
20260902032008 60 48 0.0 1.0 0.00 0.14 0.14 100 1017.7
20260902031508 60 9 0.0 0.0 0.00 0.14 0.14 100 1017.9
20260902031008 60 304 1.0 2.0 0.00 0.14 0.14 100 1018.0
20260902030508 60 19 0.0 1.0 0.00 0.14 0.14 100 1018.0
20260902025507 59 245 1.0 2.0 0.00 0.14 0.14 100 1018.0
20260902025007 59 5 0.0 2.0 0.00 0.14 0.14 100 1018.0
20260902024508 59 351 0.0 1.0 0.00 0.14 0.14 100 1017.9
20260902024008 59 8 1.0 2.0 0.00 0.14 0.14 100 1017.9
20260902023508 59 17 0.0 0.0 0.00 0.14 0.14 100 1017.8
20260902023008 59 24 0.0 1.0 0.00 0.14 0.14 100 1017.8
20260902022508 59 29 0.0 1.0 0.00 0.14 0.14 100 1017.8
20260902022008 59 16 0.0 0.0 0.00 0.14 0.14 100 1017.9
20260902021507 59 16 0.0 0.0 0.00 0.14 0.14 100 1017.9
20260902021008 59 249 0.0 0.0 0.00 0.14 0.14 100 1017.8
20260902020507 59 249 0.0 0.0 0.00 0.14 0.14 100 1018.0
20260902020008 59 265 0.0 0.0 0.00 0.14 0.14 100 1018.0
20260902015508 59 257 0.0 0.0 0.00 0.14 0.14 100 1017.9
20260902015007 59 238 0.0 0.0 0.00 0.14 0.14 100 1017.9
20260902014508 59 226 0.0 0.0 0.00 0.14 0.14 100 1018.0
20260902014007 59 218 0.0 0.0 0.00 0.14 0.14 100 1017.8
20260902013507 59 72 1.0 2.0 0.00 0.14 0.14 100 1017.6
20260902013008 59 64 0.0 1.0 0.00 0.14 0.14 100 1017.8
20260902012508 59 50 1.0 1.0 0.00 0.14 0.14 100 1018.0
20260902012008 59 59 0.0 2.0 0.00 0.14 0.14 100 1018.0
20260902011507 59 11 0.0 1.0 0.00 0.14 0.14 100 1017.9
20260902011008 59 358 0.0 1.0 0.00 0.14 0.14 100 1018.0
20260902010507 59 75 0.0 0.0 0.00 0.14 0.14 100 1017.8
20260902005508 59 38 0.0 1.0 0.00 0.14 0.14 100 1017.6
20260902005007 59 54 0.0 1.0 0.00 0.14 0.14 100 1017.4
20260902004507 59 13 0.0 0.0 0.00 0.14 0.14 100 1017.7
20260902004007 59 13 0.0 0.0 0.00 0.14 0.14 100 1017.6
20260902003507 59 21 0.0 0.0 0.00 0.14 0.14 100 1017.6
20260902003008 59 13 0.0 0.0 0.00 0.14 0.14 100 1017.5
20260902002507 59 342 0.0 0.0 0.00 0.14 0.14 100 1017.5
20260902002007 59 258 0.0 1.0 0.00 0.14 0.14 100 1017.5
20260902001507 60 111 0.0 0.0 0.00 0.14 0.14 100 1017.3
20260902001008 60 67 0.0 0.0 0.00 0.14 0.14 100 1017.2
20260902000508 60 134 0.0 0.0 0.00 0.14 0.14 100 1017.4
20260902000008 60 65 0.0 0.0 0.00 0.14 0.14 100 1017.5
20260901235507 60 43 0.0 0.0 0.00 0.14 0.14 100 1017.5
20260901235008 60 20 0.0 1.0 0.00 0.14 0.14 100 1017.5
20260901234507 60 38 0.0 1.0 0.00 0.14 0.14 100 1017.4
20260901234007 60 51 0.0 1.0 0.00 0.14 0.14 100 1017.5
20260901233507 60 41 0.0 0.0 0.00 0.14 0.14 100 1017.3
20260901233007 60 126 0.0 0.0 0.00 0.14 0.14 100 1017.2
20260901232507 60 75 0.0 0.0 0.00 0.14 0.14 100 1017.2
20260901232007 60 29 0.0 1.0 0.00 0.14 0.14 100 1017.3
20260901231507 60 183 0.0 0.0 0.00 0.14 0.14 100 1017.3
20260901231007 60 88 1.0 1.0 0.00 0.14 0.14 100 1017.3
20260901230507 60 173 0.0 1.0 0.00 0.14 0.14 100 1017.3
20260901230007 60 56 0.0 1.0 0.00 0.14 0.14 100 1017.2
20260901225507 60 108 0.0 1.0 0.00 0.14 0.14 100 1017.3
20260901225007 60 117 1.0 3.0 0.00 0.14 0.14 100 1017.1
20260901224507 60 287 0.0 0.0 0.00 0.14 0.14 100 1017.0
20260901224007 60 142 0.0 0.0 0.00 0.14 0.14 100 1017.0
20260901223507 60 137 0.0 0.0 0.00 0.14 0.14 100 1017.0
20260901223007 60 186 0.0 1.0 0.00 0.14 0.14 100 1017.1
20260901222507 60 137 0.0 2.0 0.00 0.14 0.14 100 1017.2
20260901222007 60 165 0.0 1.0 0.00 0.14 0.14 100 1017.0
20260901221507 60 214 0.0 2.0 0.00 0.14 0.14 100 1017.2
20260901221007 60 206 1.0 1.0 0.00 0.14 0.14 100 1017.2
20260901220508 60 166 1.0 1.0 0.00 0.14 0.14 100 1017.2
20260901220007 60 206 0.0 1.0 0.00 0.14 0.14 100 1017.2
20260901215007 60 240 1.0 1.0 0.00 0.14 0.14 100 1017.2
20260901214507 60 150 0.0 5.0 0.00 0.14 0.14 100 1017.3
20260901213507 59 233 1.0 2.0 0.00 0.14 0.14 99 1017.2
20260901212507 60 280 1.0 3.0 0.00 0.14 0.14 99 1017.0
20260901211507 60 160 1.0 2.0 0.00 0.14 0.14 97 1017.1
20260901211007 60 128 1.0 3.0 0.00 0.14 0.14 98 1017.1
20260901210507 60 166 0.0 2.0 0.00 0.14 0.14 98 1017.0
20260901210007 60 186 2.0 6.0 0.00 0.14 0.14 98 1017.0
20260901205007 60 211 1.0 2.0 0.00 0.14 0.14 99 1016.9
20260901204507 60 191 1.0 5.0 0.00 0.14 0.14 98 1016.9
20260901204006 60 180 1.0 2.0 0.00 0.14 0.14 99 1016.8
20260901203507 61 229 1.0 2.0 0.00 0.14 0.14 100 1016.7
20260901203006 60 187 2.0 5.0 0.00 0.14 0.14 100 1016.5
20260901202507 60 160 1.0 2.0 0.00 0.14 0.14 100 1016.6
20260901202007 61 235 1.0 2.0 0.00 0.14 0.14 100 1016.5
20260901201007 61 196 0.0 2.0 0.00 0.14 0.14 99 1016.5
20260901200506 61 214 1.0 3.0 0.00 0.14 0.14 99 1016.6
20260901200007 61 133 1.0 1.0 0.00 0.14 0.14 99 1016.5
20260901195506 61 190 1.0 2.0 0.00 0.14 0.14 97 1016.5
20260901195007 61 237 1.0 2.0 0.00 0.14 0.14 97 1016.6
20260901194506 61 166 1.0 3.0 0.00 0.14 0.14 96 1016.5
20260901194007 61 180 2.0 5.0 0.00 0.14 0.14 96 1016.5
20260901193506 61 227 1.0 2.0 0.00 0.14 0.14 95 1016.5
20260901193006 62 63 1.0 2.0 0.00 0.14 0.14 96 1016.4
20260901192507 62 132 2.0 5.0 0.00 0.14 0.14 95 1016.6
20260901192006 63 130 1.0 3.0 0.00 0.14 0.14 97 1016.4
20260901191506 63 193 1.0 2.0 0.00 0.14 0.14 97 1016.5
20260901190507 63 145 1.0 3.0 0.00 0.14 0.14 97 1016.4
20260901190006 63 235 1.0 2.0 0.00 0.14 0.14 97 1016.6
20260901185507 63 164 0.0 2.0 0.00 0.14 0.14 97 1016.6
20260901185007 63 233 1.0 2.0 0.00 0.14 0.14 97 1016.6
20260901184506 63 138 1.0 2.0 0.00 0.14 0.14 98 1016.3
20260901184007 63 244 1.0 5.0 0.00 0.14 0.14 97 1016.3
20260901183506 63 113 0.0 1.0 0.00 0.14 0.14 98 1016.4
20260901183006 63 65 0.0 3.0 0.00 0.14 0.14 98 1016.4
20260901182006 64 197 1.0 2.0 0.02 0.14 0.14 98 1016.2
20260901181507 64 153 1.0 2.0 0.02 0.14 0.14 98 1016.1
20260901181006 64 131 0.0 2.0 0.02 0.14 0.14 98 1016.1
20260901180506 64 125 1.0 3.0 0.02 0.14 0.14 97 1016.0
20260901180006 64 127 2.0 2.0 0.02 0.14 0.14 99 1016.0
20260901175507 65 207 1.0 3.0 0.02 0.14 0.14 99 1016.0
20260901175006 65 198 0.0 2.0 0.02 0.14 0.14 100 1015.9
20260901174506 65 163 0.0 2.0 0.02 0.14 0.14 100 1015.7
20260901174008 65 229 1.0 2.0 0.02 0.14 0.14 99 1015.7
20260901173506 65 180 1.0 2.0 0.02 0.14 0.14 98 1015.6
20260901173006 65 185 0.0 3.0 0.02 0.14 0.14 96 1015.5
20260901172506 65 206 0.0 2.0 0.02 0.14 0.14 94 1015.5
20260901172006 65 174 1.0 2.0 0.00 0.12 0.12 92 1015.7
20260901171006 66 183 2.0 3.0 0.00 0.12 0.12 92 1015.9
20260901170007 66 55 1.0 3.0 0.00 0.12 0.12 90 1015.7
20260901165007 67 233 1.0 3.0 0.00 0.12 0.12 91 1015.5
20260901164506 67 251 1.0 5.0 0.00 0.12 0.12 91 1015.5
20260901164006 67 215 1.0 2.0 0.00 0.12 0.12 92 1015.6
20260901163506 67 167 1.0 3.0 0.00 0.12 0.12 90 1015.7
20260901163006 67 231 1.0 2.0 0.00 0.12 0.12 92 1015.7
20260901162506 67 202 1.0 2.0 0.00 0.12 0.12 92 1015.7
20260901162006 67 215 1.0 2.0 0.00 0.12 0.12 90 1015.6
20260901161506 67 240 1.0 3.0 0.00 0.12 0.12 90 1015.6
20260901161006 68 247 1.0 2.0 0.00 0.12 0.12 87 1015.6
20260901160506 68 155 1.0 3.0 0.00 0.12 0.12 89 1015.5
20260901155506 69 162 1.0 2.0 0.00 0.12 0.12 94 1015.5
20260901155006 69 189 0.0 5.0 0.00 0.12 0.12 93 1015.5
20260901154506 69 186 1.0 1.0 0.00 0.12 0.12 94 1015.8
20260901154006 69 218 0.0 1.0 0.00 0.12 0.12 96 1015.8
20260901153506 68 352 1.0 6.0 0.00 0.12 0.12 95 1015.6
20260901152506 68 43 0.0 2.0 0.00 0.12 0.12 97 1015.7
20260901152006 68 144 0.0 2.0 0.00 0.12 0.12 97 1016.0
20260901151506 68 234 0.0 2.0 0.00 0.12 0.12 96 1016.0
20260901151006 68 153 1.0 7.0 0.00 0.12 0.12 96 1016.0
20260901150506 68 138 0.0 2.0 0.00 0.12 0.12 97 1016.0
20260901150006 68 120 1.0 3.0 0.00 0.12 0.12 97 1016.0
20260901145006 68 150 0.0 1.0 0.00 0.12 0.12 100 1016.0
20260901144506 67 89 2.0 3.0 0.02 0.12 0.12 100 1016.0
20260901144006 67 81 1.0 3.0 0.02 0.12 0.12 100 1016.1
20260901143006 66 75 1.0 3.0 0.02 0.12 0.12 100 1016.1
20260901142506 66 80 1.0 3.0 0.04 0.12 0.12 100 1016.3
20260901142005 65 166 0.0 2.0 0.04 0.12 0.12 100 1016.4
20260901141506 66 77 1.0 2.0 0.04 0.12 0.12 100 1016.4
20260901141105 66 122 0.0 2.0 0.04 0.12 0.12 100 1016.5
20260901140605 66 68 1.0 3.0 0.04 0.12 0.12 100 1016.5
20260901135606 66 194 1.0 2.0 0.06 0.12 0.12 100 1016.2
20260901135106 65 317 1.0 3.0 0.06 0.12 0.12 100 1016.5
20260901134605 65 130 0.0 1.0 0.04 0.10 0.10 100 1016.6
20260901133606 65 75 0.0 1.0 0.04 0.10 0.10 100 1016.3
20260901133106 65 133 0.0 0.0 0.06 0.10 0.10 100 1016.5
20260901132606 65 96 0.0 0.0 0.04 0.08 0.08 100 1016.5
20260901131606 65 71 2.0 2.0 0.06 0.08 0.08 100 1016.6
20260901131105 65 63 0.0 1.0 0.08 0.08 0.08 100 1016.6
20260901130606 65 38 1.0 1.0 0.08 0.08 0.08 100 1016.4
20260901130106 65 92 0.0 1.0 0.08 0.08 0.08 100 1016.4
20260901125606 65 78 0.0 1.0 0.06 0.06 0.06 100 1016.4
20260901125105 65 65 0.0 0.0 0.06 0.06 0.06 100 1016.3
20260901124605 65 137 0.0 1.0 0.06 0.06 0.06 100 1016.4
20260901124106 65 53 0.0 1.0 0.06 0.06 0.06 100 1016.3
20260901123605 64 108 1.0 1.0 0.06 0.06 0.06 100 1016.4
20260901123106 64 293 0.0 0.0 0.04 0.04 0.04 100 1016.4
20260901122605 64 299 0.0 1.0 0.04 0.04 0.04 100 1016.4
20260901121106 65 18 0.0 0.0 0.00 0.00 0.00 100 1016.2
20260901120106 64 307 0.0 0.0 0.00 0.00 0.00 100 1016.4
20260901115605 64 44 0.0 1.0 0.00 0.00 0.00 100 1016.2
20260901115105 64 48 0.0 1.0 0.00 0.00 0.00 100 1016.3
20260901114606 64 321 0.0 2.0 0.00 0.00 0.00 100 1016.3
20260901114106 64 27 0.0 1.0 0.00 0.00 0.00 100 1016.4
20260901113606 64 254 0.0 1.0 0.00 0.00 0.00 100 1016.5
20260901113106 64 271 0.0 1.0 0.00 0.00 0.00 100 1016.3
20260901112605 64 40 0.0 0.0 0.00 0.00 0.00 100 1016.3
20260901112106 64 20 0.0 0.0 0.00 0.00 0.00 100 1016.1
20260901111606 64 342 0.0 1.0 0.00 0.00 0.00 100 1016.1
20260901111106 64 317 0.0 0.0 0.00 0.00 0.00 100 1016.0
20260901110605 64 245 0.0 0.0 0.00 0.00 0.00 99 1016.0
20260901110105 64 245 0.0 0.0 0.00 0.00 0.00 99 1016.0
20260901105606 64 221 0.0 1.0 0.00 0.00 0.00 98 1016.0
20260901105105 64 189 0.0 1.0 0.00 0.00 0.00 98 1016.0
20260901104605 64 251 0.0 1.0 0.00 0.00 0.00 97 1016.0
20260901104106 64 32 0.0 1.0 0.00 0.00 0.00 98 1016.0
20260901103606 64 38 1.0 2.0 0.00 0.00 0.00 97 1016.0
20260901102605 64 53 1.0 1.0 0.00 0.00 0.00 96 1015.9
20260901102106 64 277 0.0 0.0 0.00 0.00 0.00 96 1015.9
20260901101605 64 277 0.0 0.0 0.00 0.00 0.00 96 1015.9
20260901101105 64 280 0.0 0.0 0.00 0.00 0.00 96 1015.9
20260901095606 64 26 0.0 0.0 0.00 0.00 0.00 94 1015.6
20260901094105 64 168 0.0 0.0 0.00 0.00 0.00 93 1015.7
20260901093605 64 168 0.0 1.0 0.00 0.00 0.00 93 1015.7
20260901093105 64 76 0.0 0.0 0.00 0.00 0.00 92 1015.8
20260901092605 64 89 0.0 0.0 0.00 0.00 0.00 92 1015.9
20260901092105 64 114 0.0 0.0 0.00 0.00 0.00 92 1015.9
20260901091605 64 51 0.0 0.0 0.00 0.00 0.00 92 1015.7
20260901091105 64 94 0.0 1.0 0.00 0.00 0.00 92 1015.7
20260901090105 64 207 0.0 0.0 0.00 0.00 0.00 91 1015.9
20260901085605 64 203 0.0 0.0 0.00 0.00 0.00 91 1015.9
20260901085105 64 128 0.0 0.0 0.00 0.00 0.00 91 1015.7
20260901084605 64 175 0.0 0.0 0.00 0.00 0.00 91 1015.9
20260901083606 64 156 0.0 1.0 0.00 0.00 0.00 91 1016.0
20260901083105 64 153 0.0 1.0 0.00 0.00 0.00 92 1016.0
20260901082605 64 84 0.0 1.0 0.00 0.00 0.00 92 1016.0
20260901082105 64 187 0.0 1.0 0.00 0.00 0.00 92 1016.0
20260901081605 64 169 0.0 1.0 0.00 0.00 0.00 92 1016.1
20260901081105 64 162 0.0 1.0 0.00 0.00 0.00 92 1016.1
20260901080605 64 158 0.0 1.0 0.00 0.00 0.00 92 1016.3
20260901080105 65 146 0.0 0.0 0.00 0.00 0.00 92 1016.5
20260901075605 65 146 0.0 0.0 0.00 0.00 0.00 91 1016.4
20260901075105 65 145 0.0 0.0 0.00 0.00 0.00 91 1016.4